Hourly Weather Roundup
Issued by NWS Central Illinois

Home | Current Version | Previous Version | Text Only | Print | Product List | Glossary On
Versions: 1 2 3 4 5 6 7 8 9 10 11 12 13 14 15 16 17 18 19 20 21 22 23 24 25 26 27 28 29 30 31 32 33 34 35 36 37 38 39 40 41 42 43 44 45 46 47 48 49 50
000
NZUS43 KILX 301210
HWRILX

AREA WEATHER ROUNDUP
NATIONAL WEATHER SERVICE, LINCOLN IL
600 AM CST FRI JAN 30 2015


CITY           SKY/WX    TMP DP  RH WIND       PRES   REMARKS
BLOOMINGTON    CLEAR     23  19  85 N9        30.48R WCI  13
6HR MIN TEMP:  23; 6HR MAX TEMP:  32;

CHAMPAIGN      CLEAR     25  19  78 NW13      30.46R WCI  14
6HR MIN TEMP:  25; 6HR MAX TEMP:  34;

DECATUR        CLEAR     27  19  72 NW14      30.47R WCI  16
6HR MIN TEMP:  27; 6HR MAX TEMP:  33;

FLORA          CLEAR     30  21  69 NW12      30.48R WCI  21
6HR MIN TEMP:  30; 6HR MAX TEMP:  34;

GALESBURG      CLEAR     20  16  83 NW8       30.51R WCI  11
JACKSONVILLE   CLEAR     26  19  72 NW7       30.51S WCI  19
6HR MIN TEMP:  26; 6HR MAX TEMP:  34;

LACON          CLEAR     22  16  77 NW3       30.50R
6HR MIN TEMP:  22; 6HR MAX TEMP:  31;

LAWRENCEVILLE  PTCLDY    31  23  72 NW14      30.45R WCI  21
6HR MIN TEMP:  31; 6HR MAX TEMP:  35;

LITCHFIELD     CLEAR     26  19  73 NW13      30.49R WCI  15
$$


CITY           SKY/WX    TMP DP  RH WIND       PRES   REMARKS
LINCOLN        CLEAR     27  21  78 NW6       30.51R WCI  20
6HR MIN TEMP:  26; 6HR MAX TEMP:  34;

MACOMB         CLEAR     22  19  87 NW8       30.54R WCI  13
MATTOON        CLEAR     27  20  75 N16       30.45R WCI  15
6HR MIN TEMP:  27; 6HR MAX TEMP:  33;

MT CARMEL AP   CLOUDY    34  23  64 NW14      30.44R WCI  24
OLNEY-NOBLE AP CLEAR     30  23  74 CALM      30.47R
PARIS          MOCLDY    30  23  75 NW10      30.45R WCI  21
6HR MIN TEMP:  30; 6HR MAX TEMP:  33;

PEORIA         CLEAR     24  16  71 VRB6      30.50R WCI  17
6HR MIN TEMP:  24; 6HR MAX TEMP:  32;

PONTIAC        CLEAR     24  20  85 N7        30.49R WCI  16
RANTOUL        CLEAR     27  22  80 NW8       30.45R WCI  19
6HR MIN TEMP:  27; 6HR MAX TEMP:  35;

ROBINSON       CLEAR     31  25  79 NW10      30.45R WCI  22
6HR MIN TEMP:  31; 6HR MAX TEMP:  34;

SPRINGFIELD    CLEAR     25  18  74 NW9       30.50R WCI  15
6HR MIN TEMP:  25; 6HR MAX TEMP:  34;

TAYLORVILLE    CLEAR     27  21  80 NW14      30.49R WCI  15
$$

...REGIONAL REPORTS...


CITY           SKY/WX    TMP DP  RH WIND       PRES   REMARKS
CHICAGO O`HARE PTCLDY    21   9  59 N13       30.46R WCI   9
KANKAKEE       CLEAR     25  13  59 N9        30.47R WCI  15
MOLINE         CLEAR     20  11  68 N6        30.52R WCI  12
MOUNT VERNON   CLOUDY    32  19  59 NW3       30.48R
PITTSFIELD     CLOUDY    27  20  73 N7        30.53R WCI  20
QUINCY         CLEAR     22  16  78 N7        30.53R WCI  13
ROCKFORD       CLEAR     19   8  62 N9        30.51R WCI   8
$$


CITY           SKY/WX    TMP DP  RH WIND       PRES   REMARKS
BURLINGTON     CLEAR     22  16  78 NW8       30.52R WCI  12
CEDAR RAPIDS   FAIR      16  11  80 N10       30.51S WCI   4
DES MOINES     CLEAR     19  12  74 CALM      30.55S
KIRKSVILLE     CLEAR     19  16  88 N5        30.53R WCI  12
OTTUMWA        CLEAR     17  13  84 N9        30.53S WCI   6
ST LOUIS       MOCLDY    30  19  63 N12       30.52R WCI  20
$$


CITY           SKY/WX    TMP DP  RH WIND       PRES   REMARKS
TERRE HAUTE    CLOUDY    31  23  72 N12       30.42R WCI  22
EVANSVILLE     MOCLDY    34  21  59 NW6       30.45R WCI  29
INDIANAPOLIS   FLURRIES  25  20  81 N14       30.39R WCI  13
LAFAYETTE      PTCLDY    25  14  63 N13       30.43R WCI  14
MADISON        CLEAR     14   6  70 CALM      30.49R
MILWAUKEE      PTCLDY    19   8  62 NW10      30.47R WCI   7
$$




USA.gov is the U.S. government's official web portal to all federal, state and local government web resources and services.